Location: Acheville
(50.3840°N, 2.8827°E)
Time: 11:10:23
(UTC+00:00)

Cosmos 332 Rocket - Pass Details

Date: 24 October 2021
Orbit: 682 x 703 km, 74.0° (Epoch: 30 November)

Event Time Altitude Azimuth Distance (km) Brightness Sun altitude
Rises 17:40:10 0° 178° (S) 3,074 7.2 -10.4°
Reaches altitude 10° 17:42:37 10° 170° (S) 2,159 6.3 -10.8°
Maximum altitude 17:47:03 37° 104° (ESE) 1,092 4.3 -11.5°
Drops below altitude 10° 17:51:30 10° 38° (NE) 2,163 5.9 -12.2°
Enters shadow 17:53:33 - 31° (NNE) 2,927 6.7 -12.5°
